Regional Weather Roundup
Issued by NWS

Home | Current Version | Previous Version | Graphics & Text | Print | Product List | Glossary On
Versions: 1 2 3 4 5 6 7 8 9 10 11 12 13 14 15 16 17 18 19 20 21 22 23 24 25 26 27 28 29 30 31 32 33 34 35 36 37 38 39 40 41 42 43 44 45 46 47 48 49 50
000
ASUS43 KMPX 160510
RWRMN
WEATHER ROUNDUP FOR MINNESOTA
NATIONAL WEATHER SERVICE TWIN CITIES/CHANHASSEN MN
1100 PM CST SUN JAN 15 2017


NOTE: "FAIR" INDICATES FEW OR NO CLOUDS BELOW 12,000 FEET WITH NO
SIGNIFICANT WEATHER AND/OR OBSTRUCTIONS TO VISIBILITY. N/A MEANS
CURRENT SKY AND/OR WEATHER CONDITIONS ARE NOT AVAILABLE.

MNZ060>063-068>070-160600-
   Twin Cities Metro

CITY           SKY/WX    TMP DP  RH WIND       PRES   REMARKS
TWIN CITIES    CLOUDY    20  15  81 SE5       30.22F WCI  13
ST PAUL        CLOUDY    18  16  92 SE7       30.24F FOG     WCI   9
CRYSTAL        CLOUDY    21  15  78 S6        30.20S WCI  13
BLAINE         CLOUDY    19  18  93 S5        30.20S WCI  13
LAKEVILLE      CLOUDY    19  18  93 CALM      30.21S
EDEN PRAIRIE   CLOUDY    21  15  78 S7        30.21S WCI  12
SOUTH ST PAUL  CLOUDY    18  15  86 CALM      30.23S
LAKE ELMO      FAIR      19  18  93 S5        30.23S WCI  13
$$
MNZ001>005-007-008-013>017-022>024-027-028-160600-
   Northwest Minnesota

CITY           SKY/WX    TMP DP  RH WIND       PRES   REMARKS
BEMIDJI        CLOUDY    17  13  82 CALM      30.04R
HALLOCK        CLOUDY    10   7  85 S14       29.99S WCI  -5
ROSEAU         CLOUDY    16   9  73 S13       29.97F WCI   2
WARROAD        CLOUDY    16   9  73 SW13G18   29.97F WCI   2
THIEF RVR FALL CLOUDY    12   8  84 S13       30.03S WCI  -3
CROOKSTON      CLOUDY    12   9  85 S14       30.07R WCI  -3
FOSSTON        CLOUDY    16  12  86 S16       30.05S WCI   0
DETROIT LAKES  CLOUDY    18  14  86 CALM      30.08S
MOORHEAD       CLOUDY    10   9  92 S10       30.10R WCI  -3
PARK RAPIDS    CLOUDY    13   9  84 S6        30.05F WCI   4
MAHNOMEN       FAIR      17  13  85 S9        30.06S WCI   5
$$
MNZ006-009>011-018-025>026-160600-
   North Central Minnesota

CITY           SKY/WX    TMP DP  RH WIND       PRES   REMARKS
BAUDETTE       CLOUDY    13   6  74 S6        29.98F WCI   4
FLAG ISLAND    CLOUDY     7   3  85 SE8       29.97R WCI  -6
INTL FALLS     CLOUDY    16  11  80 SW3       30.01S
WASKISH        CLOUDY    18  12  79 CALM      30.02R
BIG FORK       CLOUDY    19  16  86 S9        30.05R WCI   9
LONGVILLE      CLOUDY    19  16  86 S5        30.08S WCI  13
GRAND RAPIDS   CLOUDY    19  15  84 S7        30.10R WCI  10
CRANE LAKE     CLEAR     23  16  74 S5        30.04F WCI  17
ORR            CLOUDY    21  12  68 CALM      30.01F
COOK           CLOUDY    21  14  73 SW8       30.05S WCI  12
WALKER         FAIR      19  15  84 S6        30.06S WCI  11
$$
MNZ012-019>021-037-160600-
   Northeast Minnesota

CITY           SKY/WX    TMP DP  RH WIND       PRES   REMARKS
DULUTH         CLOUDY    22  16  78 SW12      30.10R WCI  10
ELY            CLOUDY    19  12  73 S6        30.04F WCI  11
HIBBING        CLOUDY    12   8  84 S3        30.08R
EVELETH        CLOUDY    12   8  83 CALM      30.10R
DULUTH HARBOR  CLOUDY    21  16  79 CALM      30.16S
TWO HARBORS    CLOUDY    23  16  74 W6        30.09S WCI  16
SILVER BAY     CLEAR     23  18  80 W5        30.08R WCI  17
GRAND MARAIS     N/A     28  16  60 W7        30.08R WCI  21
G MARAIS ARPRT CLEAR     18  10  73 SW5       30.02S WCI  11
$$
MNZ029>031-032-039>041-046>048-054>057-064-160600-
   West Central Minnesota

CITY           SKY/WX    TMP DP  RH WIND       PRES   REMARKS
FERGUS FALLS   CLOUDY    12  10  92 S10       30.16S WCI  -1
WHEATON        CLOUDY    23  19  86 S8        30.14R WCI  14
MORRIS         CLOUDY    14  12  92 S9        30.12S WCI   2
ALEXANDRIA     CLOUDY    19  15  84 SW7       30.12R WCI  10
ELBOW LAKE     FAIR      15  13  91 E10       30.12S FOG     WCI   2
WADENA         CLOUDY    16  12  86 S6        30.09S WCI   7
GLENWOOD       CLOUDY    18  16  93 S12       30.13S WCI   5
APPLETON       CLOUDY    25  18  74 S7        30.15R WCI  17
ORTONVILLE     CLOUDY    14  10  85 CALM      30.13R
MADISON        CLOUDY    19  16  86 S6        30.14F WCI  11
WILLMAR        FAIR      14  12  92 S3        30.16F
$$
MNZ033>034-036-042>043-049>051-058-059-160600-
   Central Minnesota

CITY           SKY/WX    TMP DP  RH WIND       PRES   REMARKS
ST CLOUD       CLOUDY    18  17  96 MISG      30.16S FOG
SAUK CENTRE    FAIR      18  16  90 S8        30.14S WCI   8
PAYNESVILLE    CLOUDY    21  21 100 S7        30.16S WCI  12
AITKIN         CLOUDY    12   9  85 S5        30.10S WCI   4
PINE RIVER     CLOUDY     9   7  92 SE5       30.12S FOG     WCI   0
BRAINERD       CLOUDY    17  14  88 SW3       30.11S FOG
STAPLES        CLOUDY    16  12  86 CALM      30.11R
LONG PRAIRIE   FAIR      14  12  92 S6        30.13R WCI   5
LITTLE FALLS   CLOUDY    14  12  92 CALM      30.15R FOG
LITCHFIELD     CLOUDY    21  19  93 CALM      30.17S
BUFFALO        CLOUDY    21  18  88 S5        30.19F WCI  15
MAPLE LAKE     CLOUDY    22  20  93 S7        30.18F WCI  13
HUTCHINSON     CLOUDY    18  17  93 SE5       30.19S WCI  11
$$
MNZ037-044-045-052-053-160600-
   East Central Minnesota

CITY           SKY/WX    TMP DP  RH WIND       PRES   REMARKS
PRINCETON      CLOUDY    23  19  86 S5        30.17S WCI  17
MORA           PTCLDY     9   5  85 CALM      30.18S
CAMBRIDGE      CLOUDY    23  16  74 S5        30.16F WCI  17
RUSH CITY        N/A     16  14  93 S3        30.19S
MOOSE LAKE     CLOUDY    18  12  79 SW3       30.13S
HINCKLEY       FAIR      14  12  92 S3        30.17R FOG
CLOQUET        CLOUDY    21  16  79 SW8       30.11S WCI  12
MCGREGOR       CLOUDY    19  18  93 S7        30.11F WCI  10
$$
MNZ071>073-080-081-089-090-097-098-160600-
   Southwest Minnesota

CITY           SKY/WX    TMP DP  RH WIND       PRES   REMARKS
MONTEVIDEO     CLOUDY    21  18  86 S5        30.16F WCI  15
GRANITE FALLS  CLOUDY    20  18  89 SE9       30.17F WCI  10
CANBY          PTCLDY    16  13  88 CALM      30.14S
MARSHALL       PTCLDY    16  12  84 S6        30.15S WCI   7
REDWOOD FALLS  CLOUDY    20  15  81 S10       30.17S WCI   9
OLIVIA         CLOUDY    19  18  93 S6        30.16F WCI  11
PIPESTONE      CLOUDY    21  16  79 S5        30.12S WCI  15
WINDOM         CLOUDY    25  19  80 S5        30.15F WCI  19
WORTHINGTON    CLOUDY    23  19  85 S6        30.15S WCI  16
JACKSON        CLOUDY    23  19  86 SE3       30.17R
TRACY          CLOUDY    25  17  70 S3        30.15S
SLAYTON        CLOUDY    21  16  79 S6        30.14F WCI  14
$$
MNZ065>067-074>077-082>085-091>093-160600-
   South Central Minnesota

CITY           SKY/WX    TMP DP  RH WIND       PRES   REMARKS
MANKATO        CLOUDY    20  17  88 SE8       30.21F WCI  10
NEW ULM        CLOUDY    19  16  86 S6        30.19S WCI  11
ST JAMES       CLOUDY    21  19  93 E5        30.19F WCI  15
FAIRMONT       CLOUDY    22  18  85 SE6       30.19F WCI  14
GLENCOE        CLOUDY    22  20  93 S3        30.18F
FARIBAULT      CLOUDY    19  18  93 S3        30.22S
OWATONNA       CLOUDY    21  18  86 SE7       30.21S WCI  13
WASECA         CLOUDY    19  18  93 CALM      30.22F
ALBERT LEA     CLOUDY    21  18  86 SE5       30.20F WCI  15
$$
MNZ078>079-086>088-094>096-160600-
   Southeast Minnesota

CITY           SKY/WX    TMP DP  RH WIND       PRES   REMARKS
ROCHESTER      CLOUDY    17  15  92 S9        30.21F WCI   6
RED WING       CLOUDY    19  16  86 E3        30.24S
STANTON        CLOUDY    19  15  82 S5        30.21F WCI  13
DODGE CENTER   CLOUDY    18  16  93 S7        30.20F WCI   8
WINONA         CLOUDY    12  10  92 CALM      30.28F
AUSTIN         CLOUDY    18  14  86 SE3       30.21F
PRESTON        CLOUDY    20  16  84 S3        30.23F
$$
ABBREVIATIONS USED IN REMARKS
   TC - TEMPERATURES IN CELSIUS
  WCI - WIND CHILL INDEX
   HX - HEAT INDEX
  VSB - VISIBILITY
$$




USA.gov is the U.S. government's official web portal to all federal, state and local government web resources and services.